Regional Weather Roundup
Issued by NWS Boston, MA

Current Version | Previous Version | Text Only | Print | Product List | Glossary Off
Versions: 1 2 3 4 5 6 7 8 9 10 11 12 13 14 15 16 17 18 19 20 21 22 23 24 25 26 27 28

000
ASUS41 KBOX 232010
RWRBOX

REGIONAL WEATHER ROUNDUP
NATIONAL WEATHER SERVICE TAUNTON MA
400 PM EDT FRI JUN 23 2017

NOTE:  "FAIR" INDICATES FEW OR NO CLOUDS BELOW 12,000 FEET WITH NO
SIGNIFICANT WEATHER AND/OR OBSTRUCTIONS TO VISIBILITY.

MAZALL-232100-
EASTERN MASSACHUSETTS

CITY           SKY/WX    TMP DP  RH WIND       PRES   REMARKS
BOSTON         PTSUNNY   85  65  51 S21       29.65F
BEVERLY        SUNNY     86  70  58 S14G21    29.64F HX  90
LAWRENCE       MOSUNNY   85  74  69 S7        29.65F HX  92
BEDFORD        CLOUDY    88  69  53 S14G22    29.62F HX  92
BLUE HILL        N/A     84  66  54 S14G24    29.67F
NORWOOD        MOSUNNY   87  69  54 S16G23    29.65F HX  91
MARSHFIELD     CLOUDY    86  68  54 SW14G24   29.67F
PLYMOUTH       SUNNY     82  69  64 SW15      29.70F
TAUNTON        CLOUDY    82  68  62 S14       29.69F
NEW BEDFORD    CLOUDY    76  69  79 S15       29.71F
$$

MAZALL-232100-
CAPE COD AND THE ISLANDS

CITY           SKY/WX    TMP DP  RH WIND       PRES   REMARKS
FALMOUTH       CLOUDY    77  70  78 SW17G23   29.75F
HYANNIS        CLOUDY    73  67  81 S10       29.73F
CHATHAM        CLOUDY    72  68  87 SW10G17   29.78F
PROVINCETOWN   PTSUNNY   76  69  79 S16       29.72F
NANTUCKET      CLOUDY    68  66  93 S15G23    29.77F
MARTHAS VNYRD  MOSUNNY   74  68  81 SW18G25   29.74F
$$

MAZALL-232100-
CENTRAL AND WESTERN MASSACHUSETTS

CITY           SKY/WX    TMP DP  RH WIND       PRES   REMARKS
WORCESTER      CLOUDY    84  60  44 S15       29.68F
FITCHBURG      MOSUNNY   91  65  41 S13       29.63F HX  93
ORANGE         PTSUNNY   87  64  46 S14G22    29.63F
SPRINGFIELD    PTSUNNY   87  66  48 S22G28    29.61F HX  90
WESTFIELD      MOSUNNY   86  68  54 MISG      29.61F
NORTH ADAMS    CLOUDY    82  66  58 SW8       29.62F
PITTSFIELD     CLOUDY    78  66  66 SW13      29.65F
$$

RIZALL-232100-
RHODE ISLAND

CITY           SKY/WX    TMP DP  RH WIND       PRES   REMARKS
PROVIDENCE     CLOUDY    83  71  67 S13G22    29.69F
NEWPORT        CLOUDY    73  69  87 S12G24    29.72F
BLOCK ISLAND   CLOUDY    72  67  84 SW15      29.74F
WESTERLY       MOSUNNY   78  69  73 S13       29.72F
$$

CTZALL-232100-
CONNECTICUT

CITY           SKY/WX    TMP DP  RH WIND       PRES   REMARKS
BRADLEY INTL   PTSUNNY   85  70  60 S14       29.63F
HARTFORD       CLOUDY    84  70  62 SW15G23   29.63F
BRIDGEPORT     CLOUDY    78  68  71 SW10      29.67F
DANBURY        CLOUDY    77  72  84 S9G17     29.69F
GROTON         PTSUNNY  N/A N/A N/A MISG      29.69F
NEW HAVEN      CLOUDY    75  70  83 SW10      29.68F
CHESTER        PTSUNNY   77  70  78 S12G21    29.69F
MERIDEN        CLOUDY    78  70  76 S14       29.66F
WILLIMANTIC    CLOUDY    85  70  60 S13       29.67F
OXFORD         PTSUNNY   75  68  78 SW6G189   29.70F
$$

MEZ002-015-021-024-NHZ003-005-008-011-012-014-VTZ005-008-232100-
NORTHERN NEW ENGLAND

CITY           SKY/WX    TMP DP  RH WIND       PRES   REMARKS
PORTLAND ME    MOSUNNY   74  67  78 S8        29.68F
BANGOR ME      CLOUDY    71  62  73 S12       29.68F
CONCORD NH     PTSUNNY   84  72  67 SE6       29.62F
MANCHESTER NH  CLOUDY    88  66  48 S14       29.61S HX  90
NASHUA NH      PTSUNNY   86  70  58 SW7G17    29.63F HX  90
PORTSMOUTH NH  PTSUNNY   76  69  79 SE9       29.63F
JAFFREY NH     PTSUNNY   87  62  43 SW12G20   29.66F
KEENE NH       MOSUNNY   87  67  51 S10G21    29.61F HX  90
BURLINGTON VT  PTSUNNY   78  72  81 S10       29.56F
MT. WASHINGTON FOG       55  55 100 SW38G46     N/A  VSB 1/16
$$

NYZ052-076-232100-
EASTERN NEW YORK

CITY           SKY/WX    TMP DP  RH WIND       PRES   REMARKS
ALBANY         PTSUNNY   84  66  54 S16G30    29.58F
NEW YORK CITY  CLOUDY    84  72  67 SW17G23   29.67F
$$

ANZALL-232100-
MARINE OBSERVATIONS

STATION/POSITION TIME  TEMP    WIND        PRES    VSBY  WAVE
                       AIR SEA DIR/SP/G                  HT/PER
                 (UTC) (F)     (DEG/KT/KT) (MB)    (MI)  (FT/S)
BOSTON BUOY      1950   67 60  150/ 14/ 16 1004.6F         2/ 3
BUZZARDS BAY     1900   66     190/ 16/ 18 1007.5F
NANTUCKET SOUND  1950      64              1007.2F         2/ 3
MASS BAY-STELLWA NOT AVBL
ISLE OF SHOALS   1900   72     230/ 14/ 18 1006.2R
S OF BLOCK IS    1955      64                N/A           3/ 5
$$

......................KEY.........................
  SKY/WX - SKY CONDITION/PRESENT WEATHER
  TMP    - TEMPERATURE IN FAHRENHEIT
  DWPT   - DEWPOINT IN FAHRENHEIT
  RH     - RELATIVE HUMIDITY IN PERCENT
  WIND   - DIRECTION AND SPEED IN MPH
  PRES   - MEAN SEA LEVEL PRESSURE IN INCHES OF HG
  WCI    - WIND CHILL INDEX
  VSB    - VISIBILITY IN MILES
  HX     - HEAT INDEX
  TC     - TEMPERATURE IN CELSIUS
  VRB    - VARIABLE WIND DIRECTION
  N/A    - NOT AVAILABLE




USA.gov is the U.S. government's official web portal to all federal, state and local government web resources and services.